Location: D�derode
(51.8092°N, 10.1065°E)
Time: 02:32:06
(UTC+00:00)

COSMOS 2428 - Visible Passes

Search period start: 15 April 2021 00:00
Search period end: 25 April 2021 00:00
Orbit: 845 x 858 km, 70.9° (Epoch: 14 April)

Date Brightness Start Highest point End Pass type
(mag) Time Alt. Az. Time Alt. Az. Time Alt. Az.
15 Apr 2.7 19:31:19 10° NNW 19:37:06 77° ENE 19:41:51 15° SE visible
15 Apr 4.6 21:16:27 10° NW 21:20:47 22° WSW 21:23:53 15° SW visible
16 Apr 2.8 19:19:15 10° NNW 19:25:01 77° ENE 19:30:26 12° SE visible
16 Apr 4.6 21:04:24 10° NW 21:08:43 22° WSW 21:12:29 12° SSW visible
17 Apr 2.8 19:07:11 10° NNW 19:12:58 77° ENE 19:18:43 10° SE visible
17 Apr 4.6 20:52:20 10° NW 20:56:39 22° WSW 21:00:56 10° SSW visible
18 Apr 2.8 18:55:06 10° NNW 19:00:54 77° ENE 19:06:39 10° SE visible
18 Apr 4.7 20:40:16 10° NW 20:44:34 22° WSW 20:48:52 10° SSW visible
19 Apr 4.7 20:28:13 10° NW 20:32:31 22° WSW 20:36:47 10° SSW visible
20 Apr 4.8 20:16:09 10° NW 20:20:27 22° WSW 20:24:42 10° SSW visible
21 Apr 4.8 20:04:05 10° NW 20:08:22 22° WSW 20:12:38 10° SSW visible
22 Apr 4.9 19:52:02 10° NW 19:56:18 22° WSW 20:00:34 10° SSW visible
23 Apr 5.0 19:39:57 10° NW 19:44:14 22° WSW 19:48:29 10° SSW visible
24 Apr 5.0 19:27:54 10° NW 19:32:09 22° W 19:36:24 10° SSW visible
